This is the latest recevied weather packets stored in our database for station/object W4KAB. If no packets are shown the sender has not sent any weather packets the latest 10 day(s).
| Time | Temp. | Humidity | Pressure | Rain* | Wind** | Luminosity | Snow |
|---|---|---|---|---|---|---|---|
| 1777867054 | 8.33° C | 74% | 1018.2 hPa | 0 mm | - | 0 W/m² | - |
| 1777866751 | 8.89° C | 72% | 1018.1 hPa | 0 mm | - | 0 W/m² | - |
| 1777866449 | 8.89° C | 72% | 1018.1 hPa | 0 mm | - | 0 W/m² | - |
| 1777866146 | 8.89° C | 73% | 1018.1 hPa | 0 mm | - | 0 W/m² | - |
| 1777865843 | 8.89° C | 72% | 1018.1 hPa | 0 mm | - | 0 W/m² | - |
| 1777864631 | 9.44° C | 71% | 1018.4 hPa | 0 mm | - | 0 W/m² | - |
| 1777847056 | 19.44° C | 31% | 1016.7 hPa | 0 mm | - | 42 W/m² | - |
| 1777842209 | 20.56° C | 29% | 1017.4 hPa | 0 mm | - | 55 W/m² | - |
| 1777841601 | 20.56° C | 27% | 1017.5 hPa | 0 mm | - | 157 W/m² | - |
| 1777840692 | 20° C | 25% | 1017.7 hPa | 0 mm | - | 124 W/m² | - |
| 1777840086 | 20.56° C | 25% | 1017.6 hPa | 0 mm | - | 572 W/m² | - |
| 1777839784 | 20.56° C | 23% | 1017.6 hPa | 0 mm | - | 583 W/m² | - |
| 1777839179 | 21.67° C | 25% | 1017.9 hPa | 0 mm | - | 601 W/m² | - |
| 1777837966 | 20.56° C | 25% | 1017.9 hPa | 0 mm | - | 641 W/m² | - |
| 1777837664 | 20° C | 24% | 1018.2 hPa | 0 mm | - | 662 W/m² | - |
| 1777836752 | 20.56° C | 25% | 1018.5 hPa | 0 mm | - | 689 W/m² | - |
| 1777835840 | 20° C | 26% | 1018.8 hPa | 0 mm | - | 713 W/m² | - |
| 1777835537 | 19.44° C | 26% | 1018.7 hPa | 0 mm | - | 710 W/m² | - |
| 1777834628 | 19.44° C | 29% | 1018.7 hPa | 0 mm | - | 745 W/m² | - |
| 1777833108 | 18.89° C | 32% | 1019.4 hPa | 0 mm | - | 776 W/m² | - |
| 1777832806 | 19.44° C | 29% | 1019.4 hPa | 0 mm | - | 771 W/m² | - |
| 1777832504 | 17.78° C | 35% | 1019.4 hPa | 0 mm | - | 752 W/m² | - |
| 1777831898 | 18.33° C | 29% | 1019.7 hPa | 0 mm | - | 747 W/m² | - |
| 1777831293 | 17.78° C | 32% | 1019.8 hPa | 0 mm | - | 779 W/m² | - |
| 1777829775 | 17.78° C | 33% | 1020 hPa | 0 mm | - | 734 W/m² | - |
* Rain latest hour (hover to see other rain measurements)
** Current wind speed in m/s (hover to see current wind gust speed)